When you browse on this site, cookies collect data to enhance your experience and personalize the content and advertising you see.
Visit our Privacy Policy to learn more. By continuing to use the site, you agree to this use of cookies and data.
  • In Portugal
  • List of Countries
  • For 7 days
  • Water Temperature
  • Satellite Maps
  • Weather Map
  • Weather Widgets
  • user-avatar
    Login

    Hourly Weather Canberra

    Today, 21 July, Sunday

    Time Temperature Precipitation Wind Pressure Humidity
    00:00 +4°C° 0 mm 1 mps 709 mmHg 89%
    01:00 +4°C° 0 mm 1 mps 709 mmHg 89%
    02:00 +4°C° 0 mm 1 mps 708 mmHg 90%
    03:00 +4°C° 0 mm 1 mps 708 mmHg 90%
    04:00 +4°C° 0 mm 1 mps 708 mmHg 90%
    05:00 +3°C° 0 mm 1 mps 708 mmHg 91%
    06:00 +2°C° 0 mm 2 mps 708 mmHg 92%
    07:00 +2°C° 0 mm 2 mps 708 mmHg 93%
    08:00 +4°C° 0 mm 3 mps 708 mmHg 83%
    09:00 +6°C° 0 mm 4 mps 708 mmHg 74%
    10:00 +8°C° 0 mm 5 mps 708 mmHg 65%
    11:00 +10°C° 0 mm 5 mps 708 mmHg 59%
    12:00 +11°C° 0 mm 6 mps 707 mmHg 54%
    13:00 +14°C° 0 mm 7 mps 706 mmHg 48%
    14:00 +13°C° 0 mm 6 mps 706 mmHg 51%
    15:00 +13°C° 0 mm 6 mps 706 mmHg 54%
    16:00 +12°C° 0 mm 5 mps 706 mmHg 57%
    17:00 +11°C° 0 mm 4 mps 706 mmHg 66%
    18:00 +9°C° 0 mm 3 mps 707 mmHg 74%
    19:00 +7°C° 0 mm 3 mps 707 mmHg 83%
    20:00 +7°C° 0 mm 3 mps 707 mmHg 84%
    21:00 +5°C° 0 mm 3 mps 707 mmHg 85%
    22:00 +5°C° 0 mm 3 mps 708 mmHg 86%
    23:00 +6°C° 0 mm 2 mps 708 mmHg 86%

    Tomorrow, 22 July, Monday

    Time Temperature Precipitation Wind Pressure Humidity
    00:00 +5°C° 0 mm 2 mps 708 mmHg 87%
    01:00 +6°C° 0 mm 1 mps 708 mmHg 88%
    02:00 +5°C° 0 mm 1 mps 708 mmHg 89%
    03:00 +5°C° 0 mm 1 mps 708 mmHg 91%
    04:00 +4°C° 0 mm 1 mps 708 mmHg 92%
    05:00 +4°C° 0 mm 1 mps 708 mmHg 93%
    06:00 +3°C° 0 mm 0 mps 708 mmHg 93%
    07:00 +2°C° 0 mm 0 mps 708 mmHg 93%
    08:00 +6°C° 0 mm 1 mps 709 mmHg 85%
    09:00 +8°C° 0 mm 1 mps 709 mmHg 76%
    10:00 +10°C° 0 mm 1 mps 709 mmHg 68%
    11:00 +12°C° 0 mm 2 mps 709 mmHg 62%
    12:00 +12°C° 0 mm 3 mps 708 mmHg 57%
    13:00 +14°C° 0 mm 4 mps 708 mmHg 51%
    14:00 +13°C° 0 mm 4 mps 707 mmHg 53%
    15:00 +13°C° 0 mm 4 mps 707 mmHg 56%
    16:00 +12°C° 0 mm 4 mps 707 mmHg 58%
    17:00 +10°C° 0 mm 3 mps 707 mmHg 68%
    18:00 +8°C° 0 mm 3 mps 707 mmHg 78%
    19:00 +6°C° 0 mm 2 mps 707 mmHg 89%
    20:00 +6°C° 0 mm 2 mps 708 mmHg 89%
    21:00 +5°C° 0 mm 2 mps 708 mmHg 90%
    22:00 +5°C° 0 mm 2 mps 708 mmHg 90%
    23:00 +5°C° 0 mm 2 mps 707 mmHg 91%

    Day after tomorrow, 23 July, Tuesday

    Time Temperature Precipitation Wind Pressure Humidity
    00:00 +4°C° 0 mm 2 mps 707 mmHg 91%
    01:00 +4°C° 0 mm 2 mps 707 mmHg 92%
    02:00 +4°C° 0 mm 2 mps 707 mmHg 92%
    03:00 +3°C° 0 mm 3 mps 707 mmHg 92%
    04:00 +3°C° 0 mm 3 mps 707 mmHg 92%
    05:00 +3°C° 0 mm 3 mps 707 mmHg 92%
    06:00 +2°C° 0 mm 3 mps 707 mmHg 91%
    07:00 +2°C° 0 mm 3 mps 707 mmHg 90%
    08:00 +3°C° 0 mm 5 mps 708 mmHg 79%
    09:00 +7°C° 0 mm 6 mps 708 mmHg 68%
    10:00 +9°C° 0 mm 7 mps 708 mmHg 57%
    11:00 +10°C° 0 mm 8 mps 708 mmHg 56%
    12:00 +11°C° 0 mm 8 mps 708 mmHg 55%
    13:00 +12°C° 0 mm 9 mps 707 mmHg 54%
    14:00 +11°C° 0 mm 8 mps 707 mmHg 58%
    15:00 +10°C° 0 mm 8 mps 707 mmHg 63%
    16:00 +9°C° 0 mm 7 mps 707 mmHg 68%
    17:00 +8°C° 0 mm 7 mps 707 mmHg 71%
    18:00 +7°C° 0 mm 6 mps 707 mmHg 75%
    19:00 +5°C° 0 mm 6 mps 707 mmHg 79%
    20:00 +5°C° 0 mm 6 mps 708 mmHg 80%
    21:00 +5°C° 0 mm 6 mps 708 mmHg 81%
    22:00 +5°C° 0 mm 7 mps 708 mmHg 81%
    23:00 +5°C° 0 mm 7 mps 707 mmHg 79%

    24 July, Wednesday

    Time Temperature Precipitation Wind Pressure Humidity
    00:00 +5°C° 0 mm 8 mps 707 mmHg 76%
    01:00 +4°C° 0 mm 8 mps 707 mmHg 74%
    02:00 +4°C° 0 mm 8 mps 707 mmHg 76%
    03:00 +4°C° 0 mm 8 mps 707 mmHg 78%
    04:00 +4°C° 0 mm 8 mps 707 mmHg 80%
    05:00 +3°C° 0 mm 7 mps 708 mmHg 80%
    06:00 +3°C° 0 mm 6 mps 708 mmHg 81%
    07:00 +3°C° 0 mm 4 mps 709 mmHg 81%
    08:00 +4°C° 0 mm 4 mps 709 mmHg 71%
    09:00 +5°C° 0 mm 4 mps 710 mmHg 61%
    10:00 +6°C° 0 mm 4 mps 711 mmHg 51%
    11:00 +7°C° 0 mm 4 mps 711 mmHg 48%
    12:00 +8°C° 0 mm 4 mps 711 mmHg 45%
    13:00 +10°C° 0 mm 4 mps 711 mmHg 42%
    14:00 +10°C° 0 mm 4 mps 711 mmHg 45%
    15:00 +9°C° 0 mm 3 mps 711 mmHg 48%
    16:00 +9°C° 0 mm 3 mps 711 mmHg 51%
    17:00 +7°C° 0 mm 2 mps 712 mmHg 62%
    18:00 +5°C° 0 mm 2 mps 712 mmHg 72%
    19:00 +3°C° 0 mm 1 mps 713 mmHg 83%
    20:00 +3°C° 0 mm 1 mps 713 mmHg 84%
    21:00 +2°C° 0 mm 1 mps 713 mmHg 85%
    22:00 +2°C° 0 mm 1 mps 714 mmHg 85%
    23:00 +2°C° 0 mm 1 mps 713 mmHg 86%

    25 July, Thursday

    Time Temperature Precipitation Wind Pressure Humidity
    00:00 +1°C° 0 mm 1 mps 713 mmHg 86%
    01:00 0°C° 0 mm 0 mps 713 mmHg 87%
    02:00 0°C° 0 mm 0 mps 713 mmHg 87%
    03:00 -1°C° 0 mm 0 mps 713 mmHg 88%
    04:00 -1°C° 0 mm 0 mps 713 mmHg 88%
    05:00 -1°C° 0 mm 0 mps 713 mmHg 89%
    06:00 -1°C° 0 mm 0 mps 713 mmHg 89%
    07:00 -1°C° 0 mm 0 mps 714 mmHg 90%
    08:00 +1°C° 0 mm 0 mps 714 mmHg 80%
    09:00 +4°C° 0 mm 0 mps 714 mmHg 70%
    10:00 +8°C° 0 mm 1 mps 714 mmHg 60%
    11:00 +9°C° 0 mm 1 mps 714 mmHg 56%
    12:00 +9°C° 0 mm 2 mps 713 mmHg 53%
    13:00 +10°C° 0 mm 2 mps 712 mmHg 49%
    14:00 +10°C° 0 mm 2 mps 712 mmHg 52%
    15:00 +10°C° 0 mm 2 mps 712 mmHg 55%
    16:00 +9°C° 0 mm 2 mps 712 mmHg 58%
    17:00 +7°C° 0 mm 2 mps 712 mmHg 69%
    18:00 +5°C° 0 mm 2 mps 712 mmHg 79%
    19:00 +3°C° 0 mm 1 mps 712 mmHg 90%
    20:00 +3°C° 0 mm 1 mps 712 mmHg 91%
    21:00 +2°C° 0 mm 1 mps 712 mmHg 93%
    22:00 +2°C° 0 mm 1 mps 712 mmHg 94%
    23:00 +1°C° 0 mm 1 mps 712 mmHg 94%

    26 July, Friday

    Time Temperature Precipitation Wind Pressure Humidity
    00:00 +1°C° 0 mm 1 mps 711 mmHg 95%
    01:00 +1°C° 0 mm 1 mps 711 mmHg 96%
    02:00 +1°C° 0 mm 1 mps 711 mmHg 96%
    03:00 +1°C° 0 mm 1 mps 710 mmHg 96%
    04:00 +1°C° 0 mm 1 mps 710 mmHg 96%
    05:00 +1°C° 0 mm 1 mps 710 mmHg 95%
    06:00 +1°C° 0 mm 1 mps 711 mmHg 95%
    07:00 +1°C° 0 mm 1 mps 711 mmHg 94%
    08:00 +3°C° 0 mm 1 mps 711 mmHg 85%
    09:00 +5°C° 0 mm 1 mps 711 mmHg 77%
    10:00 +7°C° 0 mm 1 mps 711 mmHg 68%
    11:00 +8°C° 0 mm 1 mps 711 mmHg 63%
    12:00 +9°C° 0 mm 2 mps 711 mmHg 57%
    13:00 +12°C° 0 mm 2 mps 711 mmHg 51%
    14:00 +12°C° 0 mm 2 mps 711 mmHg 54%
    15:00 +12°C° 0 mm 2 mps 711 mmHg 58%
    16:00 +12°C° 0 mm 1 mps 711 mmHg 61%
    17:00 +10°C° 0 mm 1 mps 711 mmHg 70%
    18:00 +8°C° 0 mm 1 mps 712 mmHg 78%
    19:00 +6°C° 0 mm 1 mps 712 mmHg 87%
    20:00 +4°C° 0 mm 0 mps 712 mmHg 88%
    21:00 +4°C° 0 mm 0 mps 713 mmHg 89%
    22:00 +3°C° 0 mm 0 mps 713 mmHg 91%
    23:00 +3°C° 0 mm 0 mps 713 mmHg 91%
    Show more